Lexington Weather

Lexington, Massachusetts, USA

40°F
4/22/2024 7:45am 
  • Lexington Conditions: Clear
  • Temperature: 39.6°F / 4.2°CWarmer 2.7°F than last hour.
  • Dew Point: 29.1°FIncreased 0.3°Fsince last hour.
  • Relative Humidity: 66%Decreased 6.0% since last hour.
  • Wind: Calm, 10-min avg: Calm, gust: 2 mph
  • Barometer: 29.94 in Steady
  • Visibility: 10 miles
  • Rain Today: 0.00 in
  •   

Regional Weather Roundup
for Boston, MA

        
000
ASUS41 KBOX 181510
RWRBOX

REGIONAL WEATHER ROUNDUP
NATIONAL WEATHER SERVICE BOSTON/NORTON MA
1100 AM EDT THU APR 18 2024

NOTE:  "FAIR" INDICATES FEW OR NO CLOUDS BELOW 12,000 FEET WITH NO 
SIGNIFICANT WEATHER AND/OR OBSTRUCTIONS TO VISIBILITY.

MAZALL-181600-
EASTERN MASSACHUSETTS
  
CITY           SKY/WX    TMP DP  RH WIND       PRES   REMARKS
BOSTON         CLOUDY    46  38  73 E12       30.18S                  
BEVERLY        CLOUDY    46  35  65 E12       30.17F                  
LAWRENCE       CLOUDY    47  35  63 NE10      30.19F                  
BEDFORD        CLOUDY    47  31  53 E14       30.16S                  
NORWOOD        LGT RAIN  49  37  63 E9        30.16F                  
MARSHFIELD     CLOUDY    46  37  71 E13       30.16F                  
PLYMOUTH       CLOUDY    48  32  53 E13G21    30.14F                  
TAUNTON        CLOUDY    49  33  54 E9        30.15S                  
NEW BEDFORD    CLOUDY    48  34  58 E12G20    30.14R                  
$$

MAZALL-181600-
CAPE COD AND THE ISLANDS
  
CITY           SKY/WX    TMP DP  RH WIND       PRES   REMARKS
FALMOUTH       CLOUDY    46  32  57 SE12G17   30.14S                  
HYANNIS        CLOUDY    47  30  51 E13G23    30.12F                  
CHATHAM        CLOUDY    46  36  68 E13       30.15F                  
PROVINCETOWN   CLOUDY    48  39  71 E14       30.17F                  
NANTUCKET      CLOUDY    47  36  65 E20G33    30.12S                  
MARTHAS VNYRD  CLOUDY    47  37  68 E17G25    30.12S                  
$$
 
MAZALL-181600-
CENTRAL AND WESTERN MASSACHUSETTS
  
CITY           SKY/WX    TMP DP  RH WIND       PRES   REMARKS
WORCESTER      CLOUDY    41  32  70 E12G21    30.13R                  
FITCHBURG      CLOUDY    47  31  53 E8        30.17S                  
ORANGE         LGT RAIN  45  33  63 SE8       30.16R                  
SPRINGFIELD    LGT RAIN  45  36  71 NE10      30.12R                  
WESTFIELD      LGT RAIN  46  38  73 NE12G17   30.14R                  
NORTH ADAMS    CLOUDY    46  35  65 E16G24    30.11R                  
PITTSFIELD     CLOUDY    43  34  70 E9G18     30.09R                  
$$
 
RIZALL-181600-
RHODE ISLAND
  
CITY           SKY/WX    TMP DP  RH WIND       PRES   REMARKS
PROVIDENCE     CLOUDY    47  34  60 E14       30.15R                  
NEWPORT        LGT RAIN  45  34  65 E9G26     30.13R                  
BLOCK ISLAND   LGT RAIN  43  36  76 E20G28    30.12R                  
SMITHFIELD     CLOUDY    46  33  60 E10       30.14S                  
WESTERLY       LGT RAIN  45  38  76 E15G25    30.11R                  
$$
 
CTZALL-181600-
CONNECTICUT
  
CITY           SKY/WX    TMP DP  RH WIND       PRES   REMARKS
BRADLEY INTL   LGT RAIN  47  42  83 N7        30.13R                  
HARTFORD       LGT RAIN  45  41  86 N8        30.12R FOG              
PLAINVILLE     LGT RAIN  43  43  99 N7        30.12S                  
BRIDGEPORT     CLOUDY    45  41  86 E20G29    30.10S FOG              
DANBURY        CLOUDY    44  40  85 E9        30.12R FOG              
GROTON         CLOUDY    47  37  68 E16G29    30.10R                  
NEW HAVEN      CLOUDY    48  39  71 E7G17     30.10R                  
CHESTER        CLOUDY    46  37  71 E13       30.09S                  
MERIDEN        CLOUDY    47  38  71 NE6       30.11S                  
WILLIMANTIC    CLOUDY    47  32  56 E8        30.12R                  
OXFORD         LGT RAIN  42  39  89 E7        30.09S                  
$$

MEZ002-015-021-024-NHZ003-005-008-011-012-014-VTZ005-008-181600-
NORTHERN NEW ENGLAND
  
CITY           SKY/WX    TMP DP  RH WIND       PRES   REMARKS
PORTLAND ME    MOSUNNY   48  38  68 E9        30.22S                  
BANGOR ME      MOSUNNY   54  32  43 E8        30.23F                  
CONCORD NH     LGT RAIN  47  34  60 SE9       30.18S                  
MANCHESTER NH  CLOUDY    48  35  60 VRB3      30.17S                  
NASHUA NH      CLOUDY    47  39  74 E6        30.19S                  
PORTSMOUTH NH  PTSUNNY   51  34  53 E10       30.19S                  
JAFFREY NH     CLOUDY    43  38  82 VRB3      30.16R                  
KEENE NH       CLOUDY    44  37  76 NE6       30.17R                  
BURLINGTON VT  LGT RAIN  48  35  60 SE16G25   30.09R                  
MT. WASHINGTON MOSUNNY   34  25  69 SE15        N/A  WCI  24          
$$

NYZ052-076-181600-
EASTERN NEW YORK
  
CITY           SKY/WX    TMP DP  RH WIND       PRES   REMARKS
ALBANY         CLOUDY    48  38  68 S9        30.13R                  
NEW YORK CITY  DRIZZLE   46  42  86 NE23G33   30.09R FOG              
$$
 
ANZALL-181600-
MARINE OBSERVATIONS
  
STATION/POSITION TIME  TEMP    WIND        PRES    VSBY  WAVE
                       AIR SEA DIR/SP/G                  HT/PER
                 (UTC) (F)     (DEG/KT/KT) (MB)    (MI)  (FT/S)
BOSTON BUOY      1450   44      90/ 10/ 12 1021.4F         2/ 3
BUZZARDS BAY     1400   45      80/ 21/ 23 1020.1R
NANTUCKET SOUND  1450   45 47   80/ 17/ 19 1020.0S         3/ 4
MASS BAY-STELLWA 1304   45 45   90/ 10/ 12 1022.1S  1 7/8  1/ 3
ISLE OF SHOALS   1400   44      80/ 14/ 15 1021.6F
S OF BLOCK IS    1426      45                N/A           7/ 6
$$

......................KEY.........................
  SKY/WX - SKY CONDITION/PRESENT WEATHER
  TMP    - TEMPERATURE IN FAHRENHEIT
  DWPT   - DEWPOINT IN FAHRENHEIT
  RH     - RELATIVE HUMIDITY IN PERCENT
  WIND   - DIRECTION AND SPEED IN MPH
  PRES   - MEAN SEA LEVEL PRESSURE IN INCHES OF HG
  WCI    - WIND CHILL INDEX
  VSB    - VISIBILITY IN MILES
  HX     - HEAT INDEX
  TC     - TEMPERATURE IN CELSIUS
  VRB    - VARIABLE WIND DIRECTION
  N/A    - NOT AVAILABLE
  
      

Other recent Regional Weather Roundups

Mon Apr 22, 7:10am EDT

Mon Apr 22, 6:10am EDT

Mon Apr 22, 5:10am EDT

Mon Apr 22, 4:10am EDT

Mon Apr 22, 3:10am EDT

Mon Apr 22, 2:10am EDT

Mon Apr 22, 1:10am EDT

Mon Apr 22, 12:10am EDT

Sun Apr 21, 11:10pm EDT

Sun Apr 21, 10:10pm EDT

Sun Apr 21, 9:10pm EDT

Sun Apr 21, 8:10pm EDT

Sun Apr 21, 7:10pm EDT

Sun Apr 21, 6:10pm EDT

Sun Apr 21, 5:10pm EDT

Sun Apr 21, 4:10pm EDT

Sun Apr 21, 3:10pm EDT

Sun Apr 21, 2:10pm EDT

Sun Apr 21, 1:10pm EDT

Sun Apr 21, 12:10pm EDT

Sun Apr 21, 11:10am EDT

Sun Apr 21, 10:10am EDT

Sun Apr 21, 9:10am EDT

Sun Apr 21, 8:10am EDT

Sun Apr 21, 7:10am EDT

Sun Apr 21, 6:10am EDT

Sun Apr 21, 5:10am EDT

Sun Apr 21, 4:10am EDT

Sun Apr 21, 3:10am EDT

Sun Apr 21, 2:10am EDT

Sun Apr 21, 1:10am EDT

Sun Apr 21, 12:10am EDT

Sat Apr 20, 11:10pm EDT

Sat Apr 20, 10:10pm EDT

Sat Apr 20, 9:10pm EDT

Sat Apr 20, 8:10pm EDT

Sat Apr 20, 7:10pm EDT

Sat Apr 20, 6:10pm EDT

Sat Apr 20, 5:10pm EDT

Sat Apr 20, 4:10pm EDT

Sat Apr 20, 3:10pm EDT

Sat Apr 20, 2:10pm EDT

Sat Apr 20, 1:10pm EDT

Sat Apr 20, 12:10pm EDT

Sat Apr 20, 11:10am EDT

Sat Apr 20, 10:10am EDT

Sat Apr 20, 9:10am EDT

Sat Apr 20, 8:10am EDT

Sat Apr 20, 7:10am EDT

Sat Apr 20, 6:10am EDT

Sat Apr 20, 5:10am EDT

Sat Apr 20, 4:10am EDT

Sat Apr 20, 3:10am EDT

Sat Apr 20, 2:10am EDT

Sat Apr 20, 1:10am EDT

Sat Apr 20, 12:10am EDT

Fri Apr 19, 11:10pm EDT

Fri Apr 19, 10:10pm EDT

Fri Apr 19, 9:10pm EDT

Fri Apr 19, 8:10pm EDT

Fri Apr 19, 7:10pm EDT

Fri Apr 19, 6:10pm EDT

Fri Apr 19, 5:10pm EDT

Fri Apr 19, 4:10pm EDT

Fri Apr 19, 3:10pm EDT

Fri Apr 19, 2:10pm EDT

Fri Apr 19, 1:10pm EDT

Fri Apr 19, 12:10pm EDT

Fri Apr 19, 11:10am EDT

Fri Apr 19, 10:10am EDT

Fri Apr 19, 9:10am EDT

Fri Apr 19, 8:10am EDT

Fri Apr 19, 7:10am EDT

Fri Apr 19, 6:10am EDT

Fri Apr 19, 5:10am EDT

Fri Apr 19, 4:10am EDT

Fri Apr 19, 3:10am EDT

Fri Apr 19, 2:10am EDT

Fri Apr 19, 1:10am EDT

Fri Apr 19, 12:10am EDT

Thu Apr 18, 11:10pm EDT

Thu Apr 18, 10:10pm EDT

Thu Apr 18, 9:10pm EDT

Thu Apr 18, 8:10pm EDT

Thu Apr 18, 7:10pm EDT

Thu Apr 18, 6:10pm EDT

Thu Apr 18, 5:10pm EDT

Thu Apr 18, 4:10pm EDT

Thu Apr 18, 3:10pm EDT

Thu Apr 18, 2:10pm EDT

Thu Apr 18, 1:10pm EDT

Thu Apr 18, 12:10pm EDT

Thu Apr 18, 10:10am EDT

Thu Apr 18, 9:10am EDT

Thu Apr 18, 8:10am EDT

Thu Apr 18, 7:10am EDT

Thu Apr 18, 6:10am EDT

Thu Apr 18, 5:10am EDT

Thu Apr 18, 4:10am EDT

Thu Apr 18, 3:10am EDT

Thu Apr 18, 2:10am EDT

Thu Apr 18, 1:10am EDT

Thu Apr 18, 12:10am EDT

Wed Apr 17, 11:10pm EDT

Wed Apr 17, 10:10pm EDT

Wed Apr 17, 9:10pm EDT

Wed Apr 17, 8:10pm EDT

Wed Apr 17, 7:10pm EDT

Wed Apr 17, 6:10pm EDT

Wed Apr 17, 5:10pm EDT

Wed Apr 17, 4:10pm EDT

Wed Apr 17, 3:10pm EDT

Wed Apr 17, 2:10pm EDT

Wed Apr 17, 1:10pm EDT

Wed Apr 17, 12:10pm EDT

Wed Apr 17, 11:10am EDT

Wed Apr 17, 10:10am EDT

Wed Apr 17, 9:10am EDT

Wed Apr 17, 8:10am EDT

Wed Apr 17, 7:10am EDT

Wed Apr 17, 6:10am EDT

Wed Apr 17, 5:10am EDT

Wed Apr 17, 4:10am EDT

Wed Apr 17, 3:10am EDT

Wed Apr 17, 2:10am EDT

Wed Apr 17, 1:10am EDT

Wed Apr 17, 12:10am EDT

Tue Apr 16, 11:10pm EDT

Tue Apr 16, 10:10pm EDT

Tue Apr 16, 9:10pm EDT

Tue Apr 16, 8:10pm EDT

Tue Apr 16, 7:10pm EDT

Tue Apr 16, 6:10pm EDT

Tue Apr 16, 5:10pm EDT

Tue Apr 16, 4:10pm EDT

Tue Apr 16, 3:10pm EDT

Tue Apr 16, 2:10pm EDT

Tue Apr 16, 1:10pm EDT

Tue Apr 16, 12:10pm EDT

Tue Apr 16, 11:10am EDT

Tue Apr 16, 10:10am EDT

Tue Apr 16, 9:10am EDT

Tue Apr 16, 8:10am EDT

Tue Apr 16, 7:10am EDT

Tue Apr 16, 6:10am EDT

Tue Apr 16, 5:10am EDT

Tue Apr 16, 4:10am EDT

Tue Apr 16, 3:10am EDT

Tue Apr 16, 2:10am EDT

Tue Apr 16, 1:10am EDT

Tue Apr 16, 12:10am EDT

Mon Apr 15, 11:10pm EDT

Mon Apr 15, 10:10pm EDT

Mon Apr 15, 9:10pm EDT

Mon Apr 15, 8:10pm EDT

Mon Apr 15, 7:10pm EDT

Mon Apr 15, 6:10pm EDT

Mon Apr 15, 5:10pm EDT

Mon Apr 15, 4:10pm EDT

Mon Apr 15, 3:10pm EDT

Mon Apr 15, 2:10pm EDT

Mon Apr 15, 1:10pm EDT

Mon Apr 15, 12:10pm EDT

Mon Apr 15, 11:10am EDT

Mon Apr 15, 10:10am EDT

Mon Apr 15, 9:10am EDT

Mon Apr 15, 8:10am EDT